This is the latest recevied weather packets stored in our database for station/object DM4XI-13. If no packets are shown the sender has not sent any weather packets the latest 10 day(s).
| Time | Temp. | Humidity | Pressure | Rain* | Wind** | Luminosity | Snow |
|---|---|---|---|---|---|---|---|
| 1777946347 | 15.56° C | 64% | 1007.5 hPa | 0 mm | 0.89 m/s, 9° | 0 W/m² | - |
| 1777946285 | 15.56° C | 64% | 1007.4 hPa | 0 mm | 1.34 m/s, 298° | 0 W/m² | - |
| 1777946224 | 15.56° C | 64% | 1007.3 hPa | 0 mm | 1.34 m/s, 351° | 0 W/m² | - |
| 1777946163 | 15.56° C | 63% | 1007.4 hPa | 0 mm | 1.79 m/s, 310° | 0 W/m² | - |
| 1777946102 | 15.56° C | 63% | 1007.4 hPa | 0 mm | 0.89 m/s, 302° | 0 W/m² | - |
| 1777946042 | 15.56° C | 63% | 1007.5 hPa | 0 mm | 0.45 m/s, 282° | 0 W/m² | - |
| 1777945980 | 15.56° C | 63% | 1007.3 hPa | 0 mm | 0.89 m/s, 293° | 0 W/m² | - |
| 1777945919 | 15.56° C | 63% | 1007.4 hPa | 0 mm | 1.79 m/s, 303° | 0 W/m² | - |
| 1777945858 | 15.56° C | 63% | 1007.4 hPa | 0 mm | 0.89 m/s, 297° | 0 W/m² | - |
| 1777945798 | 15.56° C | 63% | 1007.5 hPa | 0 mm | 2.68 m/s, 328° | 0 W/m² | - |
| 1777945736 | 15.56° C | 63% | 1007.2 hPa | 0 mm | 0.89 m/s, 284° | 0 W/m² | - |
| 1777945675 | 16.11° C | 62% | 1007.4 hPa | 0 mm | 1.79 m/s, 296° | 0 W/m² | - |
| 1777945614 | 16.11° C | 62% | 1007.5 hPa | 0 mm | 0.89 m/s, 294° | 0 W/m² | - |
| 1777945553 | 16.11° C | 62% | 1007.4 hPa | 0 mm | 1.79 m/s, 321° | 0 W/m² | - |
| 1777945492 | 16.11° C | 62% | 1007.5 hPa | 0 mm | 0.89 m/s, 301° | 0 W/m² | - |
| 1777945431 | 16.11° C | 62% | 1007.4 hPa | 0 mm | 0.89 m/s, 308° | 0 W/m² | - |
| 1777945370 | 16.11° C | 62% | 1007.5 hPa | 0 mm | 0.89 m/s, 245° | 0 W/m² | - |
| 1777945310 | 16.11° C | 62% | 1007.3 hPa | 0 mm | 0.89 m/s, 283° | 0 W/m² | - |
| 1777945248 | 16.11° C | 61% | 1007.4 hPa | 0 mm | 1.79 m/s, 305° | 0 W/m² | - |
| 1777945188 | 16.11° C | 61% | 1007.5 hPa | 0 mm | 0.89 m/s, 281° | 0 W/m² | - |
| 1777945126 | 16.11° C | 61% | 1007.5 hPa | 0 mm | 1.79 m/s, 297° | 0 W/m² | - |
| 1777945065 | 16.11° C | 61% | 1007.5 hPa | 0 mm | 2.24 m/s, 348° | 0 W/m² | - |
| 1777945004 | 16.11° C | 61% | 1007.4 hPa | 0 mm | 1.34 m/s, 307° | 0 W/m² | - |
| 1777944943 | 16.11° C | 61% | 1007.4 hPa | 0 mm | 0.89 m/s, 275° | 0 W/m² | - |
| 1777944882 | 16.11° C | 60% | 1007.6 hPa | 0 mm | 1.79 m/s, 263° | 0 W/m² | - |
* Rain latest hour (hover to see other rain measurements)
** Current wind speed in m/s (hover to see current wind gust speed)